Flag for Germany Weather past 2 weeks in Munich, Bavaria, Germany

Now
52 °F

Clear.


Feels Like: 52 °F
Forecast: 49 / 68 °F
Wind: 2 mph from North

Location: Munich / Franz Josef Strauss Airport

Current Time: Aug 23, 2014 at 12:19:20 AM

Latest Report: Aug 22, 2014 at 11:50 PM


Visibility: 10 mi

Pressure: 30.01 "Hg

Humidity: 88%

Dew point: 48 °F

Location of MunichLocation

Historic Weather in Munich — Graph

°F

Munich temperature yesterday

Maximum temperature yesterday: 70 °F (at 5:50 PM)
Minimum temperature yesterday: 45 °F (at 2:20 AM)
Average temperature yesterday: 57 °F

Past Weeks' High & Low Weather Summary

 TemperatureHumidityPressure
High82 °F (Aug 10, 2:50 PM)100% (Aug 8, 1:50 AM)30.15 "Hg (Aug 8, 1:50 AM)
Low45 °F (Aug 22, 2:20 AM)37% (Aug 21, 4:20 PM)29.68 "Hg (Aug 13, 3:50 PM)
Average61 °F77%29.98 "Hg
* Reported Aug 7 10:20 PM — Aug 22 10:50 PM, Munich, Weather by CustomWeather, © 2014

Note: Actual official high and low records may vary slightly from our data, if they occured in-between our weather recording intervals... More about our weather records

Advertising

Munich weather history for previous 24 hours

 ConditionsComfort  
Time TempWeatherWind HumidityBarometerVisibility
10:50 PM
Aug 22
54 °FClear.2 mph82%30.01 "Hg10 mi
10:20 PM55 °FClear.1 mph77%30.01 "Hg10 mi
9:50 PM57 °FClear.No wind72%29.98 "Hg10 mi
9:20 PM59 °FClear.1 mph72%29.98 "Hg10 mi
8:50 PM61 °FSunny.2 mph63%29.98 "Hg10 mi
8:20 PM63 °FSunny.2 mph59%29.98 "Hg10 mi
7:50 PM64 °FSunny.1 mph56%29.98 "Hg10 mi
7:20 PM66 °FSunny.5 mph52%29.98 "Hg10 mi
6:50 PM68 °FSunny.7 mph53%29.98 "Hg10 mi
6:20 PM68 °FPassing clouds.5 mph49%29.98 "HgN/A
5:50 PM70 °FPassing clouds.7 mph43%29.98 "HgN/A
5:20 PM68 °FPassing clouds.10 mph49%29.98 "HgN/A
4:50 PM68 °FSunny.8 mph46%29.98 "Hg10 mi
4:20 PM66 °FPassing clouds.9 mph52%29.98 "HgN/A
3:50 PM68 °FPassing clouds.3 mph46%29.98 "HgN/A
3:20 PM68 °FSunny.8 mph46%30.01 "Hg10 mi
2:50 PM66 °FPartly sunny.8 mph52%30.01 "HgN/A
2:20 PM66 °FPartly sunny.6 mph56%30.01 "HgN/A
1:50 PM66 °FScattered clouds.9 mph52%30.01 "HgN/A
1:20 PM68 °FScattered clouds.12 mph49%30.01 "HgN/A
12:50 PM66 °FScattered clouds.8 mph60%30.01 "HgN/A
12:20 PM66 °FScattered clouds.9 mph56%30.01 "HgN/A
11:50 AM64 °FPassing clouds.10 mph64%30.04 "HgN/A
11:20 AM63 °FSunny.6 mph68%30.04 "Hg10 mi
10:50 AM61 °FPassing clouds.6 mph77%30.04 "HgN/A
10:20 AM59 °FPassing clouds.6 mph82%30.04 "HgN/A
9:50 AM57 °FPassing clouds.6 mph82%30.04 "HgN/A
9:20 AM55 °FSunny.1 mph88%30.04 "Hg10 mi
8:50 AM54 °FSunny.2 mph94%30.04 "Hg10 mi
8:20 AM52 °FSunny.2 mph94%30.01 "Hg10 mi
7:50 AM50 °FSunny.1 mph100%30.01 "Hg10 mi
7:20 AM48 °FSunny.2 mph94%30.01 "Hg10 mi
6:50 AM48 °FClear.2 mph94%30.01 "Hg10 mi
6:20 AM46 °FClear.1 mph100%30.01 "Hg10 mi
5:50 AM46 °FClear.1 mph100%30.01 "Hg10 mi
5:20 AM46 °FClear.1 mph93%30.01 "Hg10 mi
4:20 AM45 °FClear.No wind93%30.01 "Hg10 mi
3:50 AM45 °FClear.No wind93%30.01 "Hg10 mi
3:20 AM45 °FClear.1 mph93%30.04 "Hg10 mi
2:50 AM45 °FClear.No wind100%30.04 "Hg10 mi
2:20 AM45 °FClear.1 mph100%30.04 "Hg10 mi
1:50 AM46 °FClear.1 mph93%30.04 "Hg10 mi
1:20 AM46 °FClear.1 mph93%30.04 "Hg10 mi
12:50 AM46 °FClear.1 mph93%30.04 "Hg10 mi
12:20 AM48 °FClear.1 mph87%30.04 "Hg10 mi
Weather by CustomWeather, © 2014

See weather overviewHow to use our weather pages